Location: Vancouver
(49.2500°N, 123.1330°W)
Time: 07:04:06
(UTC-08:00)

ISS - Visible Passes

Search period start: 20 December 2014 00:00
Search period end: 30 December 2014 00:00
Orbit: 404 x 415 km, 51.6° (Epoch: 20 December)

Date Brightness Start Highest point End Pass type
(mag) Time Alt. Az. Time Alt. Az. Time Alt. Az.
20 Dec -3.0 17:13:20 10° WNW 17:16:35 54° N 17:19:18 14° E visible
20 Dec -1.7 18:50:01 10° WNW 18:52:04 35° WNW 18:52:04 35° WNW visible
21 Dec -3.4 17:59:13 10° WNW 18:02:31 78° NNE 18:03:30 42° E visible
21 Dec 0.2 19:36:01 10° W 19:36:16 11° W 19:36:16 11° W visible
22 Dec -3.2 17:08:22 10° WNW 17:11:39 63° N 17:14:55 10° E visible
22 Dec -2.1 18:45:02 10° WNW 18:47:46 40° SW 18:47:46 40° SW visible
23 Dec -3.0 17:54:05 10° WNW 17:57:22 65° SSW 17:59:22 21° SE visible
23 Dec 0.1 19:31:37 10° WSW 19:32:09 12° WSW 19:32:09 12° WSW visible
24 Dec -3.3 17:03:08 10° WNW 17:06:27 90° NNE 17:09:44 10° ESE visible
24 Dec -1.1 18:40:05 10° W 18:42:43 22° SW 18:43:55 18° S visible
25 Dec -1.7 17:48:51 10° W 17:51:53 34° SSW 17:54:53 10° SE visible
26 Dec -2.4 16:57:43 10° WNW 17:00:57 53° SSW 17:04:09 10° SE visible
26 Dec 0.0 18:35:58 10° WSW 18:36:54 11° SW 18:37:50 10° SSW visible
27 Dec -0.3 17:43:46 10° W 17:46:04 18° SW 17:48:22 10° S visible
28 Dec -0.9 16:52:16 10° W 16:55:08 28° SW 16:57:58 10° SSE visible
